Time,TemperatureF,DewpointF,PressureIn,WindDirection,WindDirectionDegrees,WindSpeedMPH,WindSpeedGustMPH,Humidity,HourlyPrecipIn,Conditions,Clouds,dailyrainin,SoftwareType,DateUTC
2013-07-11 00:01:00,61.0,25.7,29.91,West,261,0.0,0.0,26,0.00,,,0.00,WUHU216WMR968SP,2013-07-11 07:01:00,
2013-07-11 00:06:00,60.8,25.5,29.91,West,261,0.0,0.0,26,0.00,,,0.00,WUHU216WMR968SP,2013-07-11 07:06:00,
2013-07-11 00:11:00,60.4,26.1,29.91,West,261,0.0,0.0,27,0.00,,,0.00,WUHU216WMR968SP,2013-07-11 07:11:00,
2013-07-11 00:16:00,60.3,26.9,29.91,WNW,285,0.0,0.0,28,0.00,,,0.00,WUHU216WMR968SP,2013-07-11 07:16:00,
2013-07-11 00:21:00,59.4,26.9,29.94,WNW,285,0.0,0.0,29,0.00,,,0.00,WUHU216WMR968SP,2013-07-11 07:21:00,
2013-07-11 00:26:00,59.2,26.7,29.94,WNW,285,0.0,0.0,29,0.00,,,0.00,WUHU216WMR968SP,2013-07-11 07:26:00,
2013-07-11 00:31:00,59.4,26.9,29.94,WNW,285,0.0,0.0,29,0.00,,,0.00,WUHU216WMR968SP,2013-07-11 07:31:00,
2013-07-11 00:36:00,59.4,26.9,29.94,WNW,285,0.0,0.0,29,0.00,,,0.00,WUHU216WMR968SP,2013-07-11 07:36:00,
2013-07-11 00:41:00,59.5,26.2,29.94,WNW,285,0.0,0.0,28,0.00,,,0.00,WUHU216WMR968SP,2013-07-11 07:41:00,
2013-07-11 00:46:00,59.4,26.1,29.94,WNW,285,0.0,0.0,28,0.00,,,0.00,WUHU216WMR968SP,2013-07-11 07:46:00,
2013-07-11 00:51:00,59.2,25.9,29.94,WNW,294,0.0,0.0,28,0.00,,,0.00,WUHU216WMR968SP,2013-07-11 07:51:00,
2013-07-11 00:56:00,58.8,26.4,29.94,WNW,294,0.0,0.0,29,0.00,,,0.00,WUHU216WMR968SP,2013-07-11 07:56:00,
2013-07-11 01:01:00,58.5,26.9,29.94,WNW,294,0.0,0.0,30,0.00,,,0.00,WUHU216WMR968SP,2013-07-11 08:01:00,
2013-07-11 01:06:00,58.5,26.9,29.94,WNW,294,0.0,0.0,30,0.00,,,0.00,WUHU216WMR968SP,2013-07-11 08:06:00,
2013-07-11 01:11:00,58.3,26.0,29.94,WNW,294,0.0,0.0,29,0.00,,,0.00,WUHU216WMR968SP,2013-07-11 08:11:00,
2013-07-11 01:16:00,58.1,25.8,29.94,WNW,294,0.0,0.0,29,0.00,,,0.00,WUHU216WMR968SP,2013-07-11 08:16:00,
2013-07-11 01:21:00,58.1,25.8,29.94,WNW,294,0.0,0.0,29,0.00,,,0.00,WUHU216WMR968SP,2013-07-11 08:21:00,
2013-07-11 01:26:00,57.9,25.6,29.94,SSW,207,0.0,0.0,29,0.00,,,0.00,WUHU216WMR968SP,2013-07-11 08:26:00,
2013-07-11 01:31:00,57.9,25.6,29.94,NW,321,0.0,2.2,29,0.00,,,0.00,WUHU216WMR968SP,2013-07-11 08:31:00,
2013-07-11 01:36:00,57.9,25.6,29.94,NW,321,0.0,2.2,29,0.00,,,0.00,WUHU216WMR968SP,2013-07-11 08:36:00,
2013-07-11 01:41:00,57.7,25.4,29.94,NW,321,0.0,0.0,29,0.00,,,0.00,WUHU216WMR968SP,2013-07-11 08:41:00,
2013-07-11 01:46:00,57.4,26.0,29.94,NW,321,0.0,0.0,30,0.00,,,0.00,WUHU216WMR968SP,2013-07-11 08:46:00,
2013-07-11 01:51:00,56.8,26.3,29.94,NW,321,0.0,0.0,31,0.00,,,0.00,WUHU216WMR968SP,2013-07-11 08:51:00,
2013-07-11 01:56:00,56.3,28.1,29.94,NW,321,0.0,0.0,34,0.00,,,0.00,WUHU216WMR968SP,2013-07-11 08:56:00,
2013-07-11 02:01:00,55.9,28.4,29.94,NW,321,0.0,0.0,35,0.00,,,0.00,WUHU216WMR968SP,2013-07-11 09:01:00,
2013-07-11 02:06:00,55.8,28.3,29.94,NW,321,0.0,0.0,35,0.00,,,0.00,WUHU216WMR968SP,2013-07-11 09:06:00,
2013-07-11 02:11:00,55.4,28.7,29.94,NW,321,0.0,0.0,36,0.00,,,0.00,WUHU216WMR968SP,2013-07-11 09:11:00,
2013-07-11 02:16:00,55.0,28.3,29.94,NW,321,0.0,0.0,36,0.00,,,0.00,WUHU216WMR968SP,2013-07-11 09:16:00,
2013-07-11 02:21:00,55.0,28.3,29.94,NW,321,0.0,0.0,36,0.00,,,0.00,WUHU216WMR968SP,2013-07-11 09:21:00,
2013-07-11 02:26:00,55.0,28.3,29.94,NW,321,0.0,0.0,36,0.00,,,0.00,WUHU216WMR968SP,2013-07-11 09:26:00,
2013-07-11 02:31:00,54.9,28.9,29.94,NW,321,0.0,0.0,37,0.00,,,0.00,WUHU216WMR968SP,2013-07-11 09:31:00,
2013-07-11 02:36:00,54.5,28.5,29.94,NW,321,0.0,0.0,37,0.00,,,0.00,WUHU216WMR968SP,2013-07-11 09:36:00,
2013-07-11 02:41:00,54.5,28.5,29.94,NW,321,0.0,0.0,37,0.00,,,0.00,WUHU216WMR968SP,2013-07-11 09:41:00,
2013-07-11 02:46:00,54.1,28.8,29.94,NW,321,0.0,0.0,38,0.00,,,0.00,WUHU216WMR968SP,2013-07-11 09:46:00,
2013-07-11 02:51:00,53.8,28.6,29.94,NW,321,0.0,0.0,38,0.00,,,0.00,WUHU216WMR968SP,2013-07-11 09:51:00,
2013-07-11 03:36:00,53.2,28.0,29.97,NW,321,0.0,0.0,38,0.00,,,0.00,WUHU216WMR968SP,2013-07-11 10:36:00,
2013-07-11 03:41:00,53.4,27.6,29.97,West,275,0.0,0.0,37,0.00,,,0.00,WUHU216WMR968SP,2013-07-11 10:41:00,
2013-07-11 03:46:00,53.4,27.6,29.97,West,275,0.0,0.0,37,0.00,,,0.00,WUHU216WMR968SP,2013-07-11 10:46:00,
2013-07-11 03:51:00,53.2,27.4,29.97,West,275,0.0,0.0,37,0.00,,,0.00,WUHU216WMR968SP,2013-07-11 10:51:00,
2013-07-11 03:56:00,53.1,27.3,29.97,West,274,0.0,0.0,37,0.00,,,0.00,WUHU216WMR968SP,2013-07-11 10:56:00,
2013-07-11 04:01:00,53.1,27.3,29.97,West,274,0.0,0.0,37,0.00,,,0.00,WUHU216WMR968SP,2013-07-11 11:01:00,
2013-07-11 04:06:00,53.1,26.6,29.97,West,274,0.0,0.0,36,0.00,,,0.00,WUHU216WMR968SP,2013-07-11 11:06:00,
2013-07-11 04:11:00,53.1,26.6,29.97,West,274,0.0,0.0,36,0.00,,,0.00,WUHU216WMR968SP,2013-07-11 11:11:00,
2013-07-11 04:16:00,52.9,26.4,29.97,NW,322,0.0,0.0,36,0.00,,,0.00,WUHU216WMR968SP,2013-07-11 11:16:00,
2013-07-11 04:21:00,52.9,26.4,29.97,NW,304,0.0,0.0,36,0.00,,,0.00,WUHU216WMR968SP,2013-07-11 11:21:00,
2013-07-11 04:26:00,52.9,26.4,29.97,NNW,332,0.0,2.7,36,0.00,,,0.00,WUHU216WMR968SP,2013-07-11 11:26:00,
2013-07-11 04:31:00,52.7,26.3,29.97,NNW,330,0.0,2.7,36,0.00,,,0.00,WUHU216WMR968SP,2013-07-11 11:31:00,
2013-07-11 04:36:00,52.5,26.1,29.97,NNW,330,0.0,0.0,36,0.00,,,0.00,WUHU216WMR968SP,2013-07-11 11:36:00,
2013-07-11 04:41:00,52.3,25.9,29.97,NNW,330,0.0,0.0,36,0.00,,,0.00,WUHU216WMR968SP,2013-07-11 11:41:00,
2013-07-11 04:46:00,52.2,25.8,29.97,NW,325,0.0,0.0,36,0.00,,,0.00,WUHU216WMR968SP,2013-07-11 11:46:00,
2013-07-11 04:51:00,52.0,25.6,29.97,NW,325,0.0,0.0,36,0.00,,,0.00,WUHU216WMR968SP,2013-07-11 11:51:00,
2013-07-11 04:56:00,51.8,26.1,29.97,NW,325,0.0,0.0,37,0.00,,,0.00,WUHU216WMR968SP,2013-07-11 11:56:00,
2013-07-11 05:01:00,51.6,25.9,29.97,NW,325,0.0,0.0,37,0.00,,,0.00,WUHU216WMR968SP,2013-07-11 12:01:00,
2013-07-11 05:06:00,51.4,26.4,29.97,NW,325,0.0,0.0,38,0.00,,,0.00,WUHU216WMR968SP,2013-07-11 12:06:00,
2013-07-11 05:11:00,51.1,26.2,29.97,SSW,210,0.0,3.6,38,0.00,,,0.00,WUHU216WMR968SP,2013-07-11 12:11:00,
2013-07-11 05:16:00,51.3,26.3,29.97,SSW,213,0.0,3.6,38,0.00,,,0.00,WUHU216WMR968SP,2013-07-11 12:16:00,
2013-07-11 05:21:00,50.9,26.0,29.97,SSW,213,0.0,3.1,38,0.00,,,0.00,WUHU216WMR968SP,2013-07-11 12:21:00,
2013-07-11 05:26:00,50.9,26.6,29.97,SSW,213,0.0,0.0,39,0.00,,,0.00,WUHU216WMR968SP,2013-07-11 12:26:00,
2013-07-11 05:31:00,50.7,26.4,29.97,SSW,213,0.0,0.0,39,0.00,,,0.00,WUHU216WMR968SP,2013-07-11 12:31:00,
2013-07-11 05:36:00,50.5,26.3,29.97,SSW,213,0.0,0.0,39,0.00,,,0.00,WUHU216WMR968SP,2013-07-11 12:36:00,
2013-07-11 05:41:00,50.4,26.2,29.97,SSW,213,0.0,0.0,39,0.00,,,0.00,WUHU216WMR968SP,2013-07-11 12:41:00,
2013-07-11 05:46:00,50.2,26.0,29.97,SW,214,0.0,0.0,39,0.00,,,0.00,WUHU216WMR968SP,2013-07-11 12:46:00,
2013-07-11 05:51:00,50.2,26.0,29.97,SW,214,0.0,0.0,39,0.00,,,0.00,WUHU216WMR968SP,2013-07-11 12:51:00,
2013-07-11 05:56:00,50.0,25.8,29.97,SW,214,0.0,0.0,39,0.00,,,0.00,WUHU216WMR968SP,2013-07-11 12:56:00,
2013-07-11 06:01:00,50.0,25.8,29.97,SW,214,0.0,0.0,39,0.00,,,0.00,WUHU216WMR968SP,2013-07-11 13:01:00,
2013-07-11 06:06:00,49.8,26.3,29.97,SW,214,0.0,0.0,40,0.00,,,0.00,WUHU216WMR968SP,2013-07-11 13:06:00,
2013-07-11 06:11:00,49.8,26.3,29.97,SSW,212,0.0,0.0,40,0.00,,,0.00,WUHU216WMR968SP,2013-07-11 13:11:00,
2013-07-11 06:16:00,49.8,26.9,29.97,SSW,208,0.0,0.0,41,0.00,,,0.00,WUHU216WMR968SP,2013-07-11 13:16:00,
2013-07-11 06:22:00,49.8,27.5,30.00,SSW,208,0.0,0.0,42,0.00,,,0.00,WUHU216WMR968SP,2013-07-11 13:22:00,
2013-07-11 06:27:00,49.8,28.1,30.00,South,190,0.0,0.0,43,0.00,,,0.00,WUHU216WMR968SP,2013-07-11 13:27:00,
2013-07-11 06:32:00,49.8,28.1,30.00,South,190,0.0,0.0,43,0.00,,,0.00,WUHU216WMR968SP,2013-07-11 13:32:00,
2013-07-11 06:37:00,50.0,28.2,30.00,SSW,193,0.0,0.0,43,0.00,,,0.00,WUHU216WMR968SP,2013-07-11 13:37:00,
2013-07-11 06:42:00,50.0,28.8,30.00,South,191,0.0,0.0,44,0.00,,,0.00,WUHU216WMR968SP,2013-07-11 13:42:00,
2013-07-11 06:47:00,50.2,29.0,30.00,SSW,193,0.0,0.0,44,0.00,,,0.00,WUHU216WMR968SP,2013-07-11 13:47:00,
2013-07-11 06:52:00,50.4,29.2,30.00,SSW,199,0.0,0.0,44,0.00,,,0.00,WUHU216WMR968SP,2013-07-11 13:52:00,
2013-07-11 06:57:00,50.5,29.3,30.00,SSW,199,0.0,0.0,44,0.00,,,0.00,WUHU216WMR968SP,2013-07-11 13:57:00,
2013-07-11 07:02:00,50.7,28.9,30.00,SSW,198,0.0,0.0,43,0.00,,,0.00,WUHU216WMR968SP,2013-07-11 14:02:00,
2013-07-11 07:08:00,51.1,28.6,30.00,West,274,2.2,3.6,42,0.00,,,0.00,WUHU216WMR968SP,2013-07-11 14:08:00,
2013-07-11 07:13:00,51.4,27.7,30.00,NW,311,0.0,4.0,40,0.00,,,0.00,WUHU216WMR968SP,2013-07-11 14:13:00,
2013-07-11 07:18:00,51.8,26.8,30.00,NW,317,0.0,4.0,38,0.00,,,0.00,WUHU216WMR968SP,2013-07-11 14:18:00,
2013-07-11 07:23:00,52.2,26.5,30.00,NW,306,0.0,0.0,37,0.00,,,0.00,WUHU216WMR968SP,2013-07-11 14:23:00,
2013-07-11 07:28:00,52.3,26.6,30.00,WSW,256,0.0,2.2,37,0.00,,,0.00,WUHU216WMR968SP,2013-07-11 14:28:00,
2013-07-11 07:33:00,52.7,26.9,30.00,West,260,0.0,2.2,37,0.00,,,0.00,WUHU216WMR968SP,2013-07-11 14:33:00,
2013-07-11 07:38:00,52.9,26.4,30.00,NNW,334,0.0,2.7,36,0.00,,,0.00,WUHU216WMR968SP,2013-07-11 14:38:00,
2013-07-11 07:43:00,53.1,26.6,30.00,WNW,286,2.2,5.8,36,0.00,,,0.00,WUHU216WMR968SP,2013-07-11 14:43:00,
2013-07-11 07:48:00,53.4,26.9,30.00,SW,235,0.0,5.8,36,0.00,,,0.00,WUHU216WMR968SP,2013-07-11 14:48:00,
2013-07-11 07:53:00,53.6,26.4,30.00,West,260,3.1,4.9,35,0.00,,,0.00,WUHU216WMR968SP,2013-07-11 14:53:00,
2013-07-11 07:58:00,53.8,25.1,30.00,WSW,253,2.7,6.3,33,0.00,,,0.00,WUHU216WMR968SP,2013-07-11 14:58:00,
2013-07-11 08:03:00,54.0,25.3,30.00,NW,317,3.1,6.3,33,0.00,,,0.00,WUHU216WMR968SP,2013-07-11 15:03:00,
2013-07-11 08:08:00,54.1,25.4,30.00,West,265,2.7,5.4,33,0.00,,,0.00,WUHU216WMR968SP,2013-07-11 15:08:00,
2013-07-11 08:14:00,54.3,25.6,30.00,West,280,2.2,5.4,33,0.00,,,0.00,WUHU216WMR968SP,2013-07-11 15:14:00,
2013-07-11 08:19:00,54.5,24.2,30.00,SW,234,3.6,5.8,31,0.00,,,0.00,WUHU216WMR968SP,2013-07-11 15:19:00,
2013-07-11 08:24:00,55.0,25.4,30.00,SW,229,0.0,5.8,32,0.00,,,0.00,WUHU216WMR968SP,2013-07-11 15:24:00,
2013-07-11 08:29:00,55.2,25.6,30.00,East,82,0.0,4.9,32,0.00,,,0.00,WUHU216WMR968SP,2013-07-11 15:29:00,
2013-07-11 08:34:00,55.8,25.4,30.00,WNW,302,0.0,4.9,31,0.00,,,0.00,WUHU216WMR968SP,2013-07-11 15:34:00,
2013-07-11 08:39:00,55.9,23.1,30.00,North,353,4.5,6.3,28,0.00,,,0.00,WUHU216WMR968SP,2013-07-11 15:39:00,
2013-07-11 08:44:00,56.3,24.2,30.00,North,357,0.0,6.3,29,0.00,,,0.00,WUHU216WMR968SP,2013-07-11 15:44:00,
2013-07-11 08:49:00,56.7,23.7,30.00,West,268,4.0,5.8,28,0.00,,,0.00,WUHU216WMR968SP,2013-07-11 15:49:00,
2013-07-11 08:54:00,56.8,23.8,30.00,West,266,2.2,5.8,28,0.00,,,0.00,WUHU216WMR968SP,2013-07-11 15:54:00,
2013-07-11 08:59:00,57.4,23.5,30.00,SW,223,3.6,6.3,27,0.00,,,0.00,WUHU216WMR968SP,2013-07-11 15:59:00,
2013-07-11 09:05:00,57.6,23.7,30.00,WSW,248,4.0,6.3,27,0.00,,,0.00,WUHU216WMR968SP,2013-07-11 16:05:00,
2013-07-11 09:10:00,57.9,23.9,30.00,NW,312,0.0,6.3,27,0.00,,,0.00,WUHU216WMR968SP,2013-07-11 16:10:00,
2013-07-11 09:15:00,58.5,23.6,30.00,West,267,0.0,4.9,26,0.00,,,0.00,WUHU216WMR968SP,2013-07-11 16:15:00,
2013-07-11 09:20:00,58.5,23.6,30.00,NNW,329,3.1,5.4,26,0.00,,,0.00,WUHU216WMR968SP,2013-07-11 16:20:00,
2013-07-11 09:25:00,58.5,23.6,30.00,North,350,2.2,5.4,26,0.00,,,0.00,WUHU216WMR968SP,2013-07-11 16:25:00,
2013-07-11 09:30:00,58.8,24.7,30.00,SW,227,0.0,4.9,27,0.00,,,0.00,WUHU216WMR968SP,2013-07-11 16:30:00,
2013-07-11 09:35:00,59.2,24.1,30.00,NW,317,3.1,4.0,26,0.00,,,0.00,WUHU216WMR968SP,2013-07-11 16:35:00,
2013-07-11 09:41:00,59.5,23.5,30.00,West,259,2.7,4.0,25,0.00,,,0.00,WUHU216WMR968SP,2013-07-11 16:41:00,
2013-07-11 09:46:00,60.1,24.0,30.00,ESE,123,0.0,6.3,25,0.00,,,0.00,WUHU216WMR968SP,2013-07-11 16:46:00,
2013-07-11 09:51:00,60.1,24.0,29.97,North,357,0.0,6.3,25,0.00,,,0.00,WUHU216WMR968SP,2013-07-11 16:51:00,
2013-07-11 09:56:00,60.4,24.3,29.97,NNE,18,3.1,5.4,25,0.00,,,0.00,WUHU216WMR968SP,2013-07-11 16:56:00,
2013-07-11 10:01:00,60.6,24.4,29.97,WNW,291,4.5,6.3,25,0.00,,,0.00,WUHU216WMR968SP,2013-07-11 17:01:00,
2013-07-11 10:06:00,60.4,24.3,30.00,West,274,2.7,6.3,25,0.00,,,0.00,WUHU216WMR968SP,2013-07-11 17:06:00,
2013-07-11 10:11:00,60.6,24.4,30.00,NW,314,2.7,5.8,25,0.00,,,0.00,WUHU216WMR968SP,2013-07-11 17:11:00,
2013-07-11 10:16:00,60.6,24.4,30.00,WNW,289,0.0,5.4,25,0.00,,,0.00,WUHU216WMR968SP,2013-07-11 17:16:00,
2013-07-11 10:21:00,60.8,24.6,29.97,South,171,0.0,5.4,25,0.00,,,0.00,WUHU216WMR968SP,2013-07-11 17:21:00,
2013-07-11 10:27:00,61.2,24.9,29.97,WSW,248,3.6,5.4,25,0.00,,,0.00,WUHU216WMR968SP,2013-07-11 17:27:00,
2013-07-11 10:32:00,61.3,25.0,29.97,West,278,3.1,5.4,25,0.00,,,0.00,WUHU216WMR968SP,2013-07-11 17:32:00,
2013-07-11 10:37:00,62.1,24.7,30.00,North,353,0.0,4.0,24,0.00,,,0.00,WUHU216WMR968SP,2013-07-11 17:37:00,
2013-07-11 10:42:00,62.8,25.3,30.00,NW,326,3.1,4.0,24,0.00,,,0.00,WUHU216WMR968SP,2013-07-11 17:42:00,
2013-07-11 10:47:00,62.6,25.2,30.00,NNW,335,2.7,4.0,24,0.00,,,0.00,WUHU216WMR968SP,2013-07-11 17:47:00,
2013-07-11 10:52:00,62.4,25.0,30.00,ESE,102,0.0,7.6,24,0.00,,,0.00,WUHU216WMR968SP,2013-07-11 17:52:00,
2013-07-11 10:57:00,63.9,26.3,30.00,ESE,120,0.0,7.6,24,0.00,,,0.00,WUHU216WMR968SP,2013-07-11 17:57:00,
2013-07-11 11:02:00,64.4,25.7,30.00,SE,138,2.2,6.3,23,0.00,,,0.00,WUHU216WMR968SP,2013-07-11 18:02:00,
2013-07-11 11:07:00,65.1,26.3,30.00,NW,315,0.0,6.3,23,0.00,,,0.00,WUHU216WMR968SP,2013-07-11 18:07:00,
2013-07-11 11:13:00,65.5,26.6,30.00,ENE,77,0.0,5.4,23,0.00,,,0.00,WUHU216WMR968SP,2013-07-11 18:13:00,
2013-07-11 11:18:00,66.0,27.0,30.00,SSE,168,2.7,4.0,23,0.00,,,0.00,WUHU216WMR968SP,2013-07-11 18:18:00,
2013-07-11 11:23:00,65.7,26.8,30.00,WNW,300,3.6,4.9,23,0.00,,,0.00,WUHU216WMR968SP,2013-07-11 18:23:00,
2013-07-11 11:28:00,65.3,23.1,30.00,SW,222,4.0,8.3,20,0.00,,,0.00,WUHU216WMR968SP,2013-07-11 18:28:00,
2013-07-11 11:33:00,64.9,22.8,30.00,West,275,5.4,8.3,20,0.00,,,0.00,WUHU216WMR968SP,2013-07-11 18:33:00,
2013-07-11 11:38:00,65.1,23.0,29.97,SSW,206,2.7,7.6,20,0.00,,,0.00,WUHU216WMR968SP,2013-07-11 18:38:00,
2013-07-11 11:43:00,65.1,23.0,29.97,SW,217,2.7,7.6,20,0.00,,,0.00,WUHU216WMR968SP,2013-07-11 18:43:00,
2013-07-11 11:48:00,65.1,23.0,29.97,SSW,205,0.0,4.0,20,0.00,,,0.00,WUHU216WMR968SP,2013-07-11 18:48:00,
2013-07-11 11:53:00,65.3,23.1,29.97,SW,225,3.6,5.4,20,0.00,,,0.00,WUHU216WMR968SP,2013-07-11 18:53:00,
2013-07-11 11:58:00,65.5,23.3,29.97,WSW,249,3.6,6.3,20,0.00,,,0.00,WUHU216WMR968SP,2013-07-11 18:58:00,
2013-07-11 12:03:00,65.7,26.8,29.97,WSW,244,2.2,6.3,23,0.00,,,0.00,WUHU216WMR968SP,2013-07-11 19:03:00,
2013-07-11 12:08:00,66.6,26.5,29.97,SW,224,0.0,5.8,22,0.00,,,0.00,WUHU216WMR968SP,2013-07-11 19:08:00,
2013-07-11 12:13:00,66.2,23.9,29.97,SW,231,2.7,4.0,20,0.00,,,0.00,WUHU216WMR968SP,2013-07-11 19:13:00,
2013-07-11 12:19:00,66.4,24.0,29.97,SW,232,3.6,5.8,20,0.00,,,0.00,WUHU216WMR968SP,2013-07-11 19:19:00,
2013-07-11 12:24:00,66.6,24.2,29.97,NNW,336,3.6,8.1,20,0.00,,,0.00,WUHU216WMR968SP,2013-07-11 19:24:00,
2013-07-11 12:29:00,67.5,24.9,29.97,WNW,299,2.7,8.1,20,0.00,,,0.00,WUHU216WMR968SP,2013-07-11 19:29:00,
2013-07-11 12:34:00,67.3,24.8,29.97,WSW,239,3.1,8.3,20,0.00,,,0.00,WUHU216WMR968SP,2013-07-11 19:34:00,
2013-07-11 12:39:00,67.5,24.9,29.97,SW,234,4.0,8.3,20,0.00,,,0.00,WUHU216WMR968SP,2013-07-11 19:39:00,
2013-07-11 12:44:00,67.8,25.2,29.97,SW,236,4.0,8.1,20,0.00,,,0.00,WUHU216WMR968SP,2013-07-11 19:44:00,
2013-07-11 12:49:00,67.6,25.0,29.97,WSW,250,2.7,10.1,20,0.00,,,0.00,WUHU216WMR968SP,2013-07-11 19:49:00,
2013-07-11 12:54:00,68.0,25.4,29.97,SSW,209,0.0,10.1,20,0.00,,,0.00,WUHU216WMR968SP,2013-07-11 19:54:00,
2013-07-11 12:59:00,68.9,26.1,29.97,SSE,157,0.0,5.8,20,0.00,,,0.00,WUHU216WMR968SP,2013-07-11 19:59:00,
2013-07-11 13:04:00,68.9,26.1,29.97,SW,231,2.7,5.8,20,0.00,,,0.00,WUHU216WMR968SP,2013-07-11 20:04:00,
2013-07-11 13:10:00,69.3,22.6,29.97,SSW,208,2.2,5.4,17,0.00,,,0.00,WUHU216WMR968SP,2013-07-11 20:10:00,
2013-07-11 13:15:00,69.6,22.8,29.97,WSW,238,3.1,5.4,17,0.00,,,0.00,WUHU216WMR968SP,2013-07-11 20:15:00,
2013-07-11 13:20:00,68.9,22.2,29.97,SW,219,4.5,8.1,17,0.00,,,0.00,WUHU216WMR968SP,2013-07-11 20:20:00,
2013-07-11 13:25:00,69.3,22.6,29.97,SW,231,2.2,8.1,17,0.00,,,0.00,WUHU216WMR968SP,2013-07-11 20:25:00,
2013-07-11 13:30:00,69.6,22.8,29.97,SSW,197,2.2,6.3,17,0.00,,,0.00,WUHU216WMR968SP,2013-07-11 20:30:00,
2013-07-11 13:35:00,69.8,23.0,29.94,WNW,289,5.8,7.6,17,0.00,,,0.00,WUHU216WMR968SP,2013-07-11 20:35:00,
2013-07-11 13:40:00,69.8,23.0,29.94,WSW,243,4.0,7.6,17,0.00,,,0.00,WUHU216WMR968SP,2013-07-11 20:40:00,
2013-07-11 13:45:00,70.5,23.5,29.94,West,263,3.1,9.6,17,0.00,,,0.00,WUHU216WMR968SP,2013-07-11 20:45:00,
2013-07-11 13:50:00,70.9,23.9,29.94,NNW,344,0.0,9.6,17,0.00,,,0.00,WUHU216WMR968SP,2013-07-11 20:50:00,
2013-07-11 13:56:00,70.7,23.7,29.94,ENE,78,3.6,8.1,17,0.00,,,0.00,WUHU216WMR968SP,2013-07-11 20:56:00,
2013-07-11 14:01:00,71.4,24.3,29.94,West,262,3.6,6.3,17,0.00,,,0.00,WUHU216WMR968SP,2013-07-11 21:01:00,
2013-07-11 14:06:00,72.0,23.3,29.94,SSW,195,2.7,5.8,16,0.00,,,0.00,WUHU216WMR968SP,2013-07-11 21:06:00,
2013-07-11 14:11:00,70.9,23.9,29.94,NW,315,3.1,8.7,17,0.00,,,0.00,WUHU216WMR968SP,2013-07-11 21:11:00,
2013-07-11 14:16:00,71.1,24.0,29.94,West,259,3.6,8.7,17,0.00,,,0.00,WUHU216WMR968SP,2013-07-11 21:16:00,
2013-07-11 14:21:00,71.6,23.0,29.94,NW,305,4.0,6.3,16,0.00,,,0.00,WUHU216WMR968SP,2013-07-11 21:21:00,
2013-07-11 14:26:00,71.4,24.3,29.94,SW,218,5.4,8.3,17,0.00,,,0.00,WUHU216WMR968SP,2013-07-11 21:26:00,
2013-07-11 14:31:00,71.6,23.0,29.94,NNW,337,3.6,8.3,16,0.00,,,0.00,WUHU216WMR968SP,2013-07-11 21:31:00,
2013-07-11 14:36:00,71.6,23.0,29.91,SW,224,4.9,11.0,16,0.00,,,0.00,WUHU216WMR968SP,2013-07-11 21:36:00,
2013-07-11 14:41:00,71.8,23.1,29.91,WNW,290,3.1,11.0,16,0.00,,,0.00,WUHU216WMR968SP,2013-07-11 21:41:00,
2013-07-11 14:47:00,72.1,23.4,29.91,NNW,342,4.0,8.3,16,0.00,,,0.00,WUHU216WMR968SP,2013-07-11 21:47:00,
2013-07-11 14:52:00,72.0,23.3,29.94,West,261,4.0,7.6,16,0.00,,,0.00,WUHU216WMR968SP,2013-07-11 21:52:00,
2013-07-11 14:57:00,72.1,23.4,29.94,SW,216,2.2,5.8,16,0.00,,,0.00,WUHU216WMR968SP,2013-07-11 21:57:00,
2013-07-11 15:02:00,72.1,23.4,29.94,North,353,4.9,7.6,16,0.00,,,0.00,WUHU216WMR968SP,2013-07-11 22:02:00,
2013-07-11 15:07:00,72.3,23.5,29.94,West,259,4.9,7.6,16,0.00,,,0.00,WUHU216WMR968SP,2013-07-11 22:07:00,
2013-07-11 15:12:00,72.3,23.5,29.94,WNW,287,4.0,8.1,16,0.00,,,0.00,WUHU216WMR968SP,2013-07-11 22:12:00,
2013-07-11 15:17:00,73.0,24.1,29.94,NNW,338,2.7,8.1,16,0.00,,,0.00,WUHU216WMR968SP,2013-07-11 22:17:00,
2013-07-11 15:22:00,73.2,24.3,29.91,SW,229,4.0,6.3,16,0.00,,,0.00,WUHU216WMR968SP,2013-07-11 22:22:00,
2013-07-11 15:27:00,72.7,23.9,29.91,SSW,206,0.0,10.1,16,0.00,,,0.00,WUHU216WMR968SP,2013-07-11 22:27:00,
2013-07-11 15:32:00,72.9,24.0,29.91,WSW,256,4.9,10.1,16,0.00,,,0.00,WUHU216WMR968SP,2013-07-11 22:32:00,
2013-07-11 15:37:00,72.9,24.0,29.91,SW,236,4.5,8.1,16,0.00,,,0.00,WUHU216WMR968SP,2013-07-11 22:37:00,
2013-07-11 15:42:00,72.9,24.0,29.91,WSW,237,4.0,8.1,16,0.00,,,0.00,WUHU216WMR968SP,2013-07-11 22:42:00,
2013-07-11 15:47:00,73.4,24.4,29.91,NW,322,3.6,10.1,16,0.00,,,0.00,WUHU216WMR968SP,2013-07-11 22:47:00,
2013-07-11 15:53:00,73.6,24.6,29.91,SW,221,0.0,10.1,16,0.00,,,0.00,WUHU216WMR968SP,2013-07-11 22:53:00,
2013-07-11 15:58:00,74.3,25.1,29.91,SW,231,3.6,7.6,16,0.00,,,0.00,WUHU216WMR968SP,2013-07-11 22:58:00,
2013-07-11 16:03:00,75.2,24.3,29.91,WSW,245,0.0,5.8,15,0.00,,,0.00,WUHU216WMR968SP,2013-07-11 23:03:00,
2013-07-11 16:08:00,74.3,25.1,29.91,WSW,257,4.5,6.3,16,0.00,,,0.00,WUHU216WMR968SP,2013-07-11 23:08:00,
2013-07-11 16:13:00,73.9,24.8,29.91,SSW,213,0.0,6.3,16,0.00,,,0.00,WUHU216WMR968SP,2013-07-11 23:13:00,
2013-07-11 16:18:00,73.8,24.7,29.91,SW,216,3.1,6.3,16,0.00,,,0.00,WUHU216WMR968SP,2013-07-11 23:18:00,
2013-07-11 16:23:00,74.1,25.0,29.91,SW,218,2.2,6.3,16,0.00,,,0.00,WUHU216WMR968SP,2013-07-11 23:23:00,
2013-07-11 16:28:00,73.9,24.8,29.91,WSW,240,5.4,7.6,16,0.00,,,0.00,WUHU216WMR968SP,2013-07-11 23:28:00,
2013-07-11 16:33:00,73.8,24.7,29.91,West,259,4.5,7.6,16,0.00,,,0.00,WUHU216WMR968SP,2013-07-11 23:33:00,
2013-07-11 16:38:00,74.3,25.1,29.91,NNW,344,2.2,6.7,16,0.00,,,0.00,WUHU216WMR968SP,2013-07-11 23:38:00,
2013-07-11 16:43:00,74.7,25.5,29.91,SW,234,4.0,8.7,16,0.00,,,0.00,WUHU216WMR968SP,2013-07-11 23:43:00,
2013-07-11 16:49:00,74.8,25.5,29.91,SW,236,3.1,8.7,16,0.00,,,0.00,WUHU216WMR968SP,2013-07-11 23:49:00,
2013-07-11 16:54:00,75.4,24.5,29.91,WNW,285,2.7,5.8,15,0.00,,,0.00,WUHU216WMR968SP,2013-07-11 23:54:00,
2013-07-11 16:59:00,75.6,24.6,29.91,West,259,4.0,6.3,15,0.00,,,0.00,WUHU216WMR968SP,2013-07-11 23:59:00,
2013-07-11 17:04:00,75.6,24.6,29.91,West,260,3.1,6.3,15,0.00,,,0.00,WUHU216WMR968SP,2013-07-12 00:04:00,
2013-07-11 17:09:00,75.4,24.5,29.88,WSW,238,2.2,5.8,15,0.00,,,0.00,WUHU216WMR968SP,2013-07-12 00:09:00,
2013-07-11 17:14:00,74.8,25.5,29.88,NNW,331,5.4,8.1,16,0.00,,,0.00,WUHU216WMR968SP,2013-07-12 00:14:00,
2013-07-11 17:19:00,75.0,25.7,29.88,WSW,255,3.6,8.1,16,0.00,,,0.00,WUHU216WMR968SP,2013-07-12 00:19:00,
2013-07-11 17:24:00,75.0,25.7,29.88,WSW,243,4.5,6.3,16,0.00,,,0.00,WUHU216WMR968SP,2013-07-12 00:24:00,
2013-07-11 17:29:00,74.8,25.5,29.88,West,266,4.0,7.6,16,0.00,,,0.00,WUHU216WMR968SP,2013-07-12 00:29:00,
2013-07-11 17:34:00,74.5,25.3,29.88,South,189,3.1,8.1,16,0.00,,,0.00,WUHU216WMR968SP,2013-07-12 00:34:00,
2013-07-11 17:39:00,74.7,25.5,29.88,WSW,256,2.2,8.1,16,0.00,,,0.00,WUHU216WMR968SP,2013-07-12 00:39:00,
2013-07-11 17:44:00,75.2,24.3,29.88,SSW,204,3.1,6.3,15,0.00,,,0.00,WUHU216WMR968SP,2013-07-12 00:44:00,
2013-07-11 17:49:00,74.7,25.5,29.88,WNW,297,3.6,6.3,16,0.00,,,0.00,WUHU216WMR968SP,2013-07-12 00:49:00,
2013-07-11 17:55:00,74.7,25.5,29.88,WSW,255,4.0,6.3,16,0.00,,,0.00,WUHU216WMR968SP,2013-07-12 00:55:00,
2013-07-11 18:00:00,74.8,25.5,29.88,SW,215,4.0,6.3,16,0.00,,,0.00,WUHU216WMR968SP,2013-07-12 01:00:00,
2013-07-11 18:05:00,74.7,25.5,29.88,SW,230,0.0,6.3,16,0.00,,,0.00,WUHU216WMR968SP,2013-07-12 01:05:00,
2013-07-11 18:10:00,74.8,25.5,29.88,NW,315,4.0,7.2,16,0.00,,,0.00,WUHU216WMR968SP,2013-07-12 01:10:00,
2013-07-11 18:15:00,75.2,24.3,29.88,West,263,0.0,7.2,15,0.00,,,0.00,WUHU216WMR968SP,2013-07-12 01:15:00,
2013-07-11 18:20:00,75.6,24.6,29.88,WSW,238,0.0,6.3,15,0.00,,,0.00,WUHU216WMR968SP,2013-07-12 01:20:00,
2013-07-11 18:25:00,75.4,24.5,29.88,West,260,2.7,5.4,15,0.00,,,0.00,WUHU216WMR968SP,2013-07-12 01:25:00,
2013-07-11 18:30:00,75.2,24.3,29.88,SW,225,3.6,5.4,15,0.00,,,0.00,WUHU216WMR968SP,2013-07-12 01:30:00,
2013-07-11 18:36:00,74.7,25.5,29.88,SW,231,2.7,6.3,16,0.00,,,0.00,WUHU216WMR968SP,2013-07-12 01:36:00,
2013-07-11 18:41:00,74.7,25.5,29.88,WSW,254,2.7,6.3,16,0.00,,,0.00,WUHU216WMR968SP,2013-07-12 01:41:00,
2013-07-11 18:46:00,74.7,25.5,29.88,WNW,301,4.0,6.3,16,0.00,,,0.00,WUHU216WMR968SP,2013-07-12 01:46:00,
2013-07-11 18:51:00,75.0,25.7,29.88,West,277,2.2,6.3,16,0.00,,,0.00,WUHU216WMR968SP,2013-07-12 01:51:00,
2013-07-11 18:56:00,74.8,25.5,29.88,West,273,4.9,6.7,16,0.00,,,0.00,WUHU216WMR968SP,2013-07-12 01:56:00,
2013-07-11 19:01:00,74.8,25.5,29.88,WSW,254,3.1,6.7,16,0.00,,,0.00,WUHU216WMR968SP,2013-07-12 02:01:00,
2013-07-11 19:06:00,74.5,25.3,29.88,West,280,0.0,6.3,16,0.00,,,0.00,WUHU216WMR968SP,2013-07-12 02:06:00,
2013-07-11 19:11:00,74.3,25.1,29.88,NW,304,2.7,6.3,16,0.00,,,0.00,WUHU216WMR968SP,2013-07-12 02:11:00,
2013-07-11 19:16:00,74.5,25.3,29.88,North,357,2.2,6.3,16,0.00,,,0.00,WUHU216WMR968SP,2013-07-12 02:16:00,
2013-07-11 19:22:00,74.3,25.1,29.88,SW,235,0.0,4.0,16,0.00,,,0.00,WUHU216WMR968SP,2013-07-12 02:22:00,
2013-07-11 19:27:00,73.9,24.8,29.88,NW,322,0.0,4.0,16,0.00,,,0.00,WUHU216WMR968SP,2013-07-12 02:27:00,
2013-07-11 19:32:00,73.2,24.3,29.88,WNW,282,2.2,4.0,16,0.00,,,0.00,WUHU216WMR968SP,2013-07-12 02:32:00,
2013-07-11 19:38:00,73.0,24.1,29.88,WNW,292,0.0,3.6,16,0.00,,,0.00,WUHU216WMR968SP,2013-07-12 02:38:00,
2013-07-11 19:43:00,72.5,20.5,29.88,WNW,295,2.7,6.7,14,0.00,,,0.00,WUHU216WMR968SP,2013-07-12 02:43:00,
2013-07-11 19:48:00,72.0,20.1,29.88,NW,308,0.0,6.7,14,0.00,,,0.00,WUHU216WMR968SP,2013-07-12 02:48:00,
2013-07-11 19:53:00,71.8,19.9,29.88,SW,230,0.0,4.5,14,0.00,,,0.00,WUHU216WMR968SP,2013-07-12 02:53:00,
2013-07-11 19:58:00,71.6,19.8,29.88,NNW,338,0.0,4.5,14,0.00,,,0.00,WUHU216WMR968SP,2013-07-12 02:58:00,
2013-07-11 20:03:00,71.1,19.4,29.88,NW,325,0.0,2.7,14,0.00,,,0.00,WUHU216WMR968SP,2013-07-12 03:03:00,
2013-07-11 20:09:00,70.7,19.1,29.88,NW,325,0.0,2.2,14,0.00,,,0.00,WUHU216WMR968SP,2013-07-12 03:09:00,
2013-07-11 20:14:00,70.3,18.7,29.88,North,7,0.0,2.7,14,0.00,,,0.00,WUHU216WMR968SP,2013-07-12 03:14:00,
2013-07-11 20:19:00,70.2,18.7,29.88,WNW,301,0.0,2.7,14,0.00,,,0.00,WUHU216WMR968SP,2013-07-12 03:19:00,
2013-07-11 20:24:00,69.4,19.7,29.88,WNW,301,0.0,0.0,15,0.00,,,0.00,WUHU216WMR968SP,2013-07-12 03:24:00,
2013-07-11 20:29:00,68.5,18.9,29.88,WNW,300,0.0,0.0,15,0.00,,,0.00,WUHU216WMR968SP,2013-07-12 03:29:00,
2013-07-11 20:34:00,67.5,21.1,29.88,WNW,299,0.0,0.0,17,0.00,,,0.00,WUHU216WMR968SP,2013-07-12 03:34:00,
2013-07-11 20:40:00,66.4,20.2,29.88,WNW,299,0.0,0.0,17,0.00,,,0.00,WUHU216WMR968SP,2013-07-12 03:40:00,
2013-07-11 20:45:00,65.3,20.6,29.88,WNW,301,0.0,0.0,18,0.00,,,0.00,WUHU216WMR968SP,2013-07-12 03:45:00,
2013-07-11 20:50:00,64.4,19.9,29.88,WNW,299,0.0,0.0,18,0.00,,,0.00,WUHU216WMR968SP,2013-07-12 03:50:00,
2013-07-11 20:55:00,63.9,19.5,29.88,WNW,301,0.0,0.0,18,0.00,,,0.00,WUHU216WMR968SP,2013-07-12 03:55:00,
2013-07-11 21:00:00,62.6,18.4,29.88,WNW,300,0.0,0.0,18,0.00,,,0.00,WUHU216WMR968SP,2013-07-12 04:00:00,
2013-07-11 21:01:00,62.6,18.4,29.88,WNW,300,0.0,0.0,18,0.00,,,0.00,WUHU216WMR968SP,2013-07-12 04:01:00,
2013-07-11 21:06:00,61.5,21.1,29.88,WNW,300,0.0,0.0,21,0.00,,,0.00,WUHU216WMR968SP,2013-07-12 04:06:00,
2013-07-11 21:11:00,60.8,23.6,29.88,WNW,300,0.0,0.0,24,0.00,,,0.00,WUHU216WMR968SP,2013-07-12 04:11:00,
2013-07-11 21:16:00,60.6,23.5,29.88,WNW,300,0.0,0.0,24,0.00,,,0.00,WUHU216WMR968SP,2013-07-12 04:16:00,
2013-07-11 21:21:00,60.3,23.2,29.88,WNW,300,0.0,0.0,24,0.00,,,0.00,WUHU216WMR968SP,2013-07-12 04:21:00,
2013-07-11 21:26:00,60.1,23.0,29.88,WNW,300,0.0,0.0,24,0.00,,,0.00,WUHU216WMR968SP,2013-07-12 04:26:00,
2013-07-11 21:31:00,59.9,23.8,29.88,WNW,300,0.0,0.0,25,0.00,,,0.00,WUHU216WMR968SP,2013-07-12 04:31:00,
2013-07-11 21:36:00,59.7,23.7,29.88,WNW,300,0.0,0.0,25,0.00,,,0.00,WUHU216WMR968SP,2013-07-12 04:36:00,
2013-07-11 21:41:00,59.7,23.7,29.88,WNW,300,0.0,0.0,25,0.00,,,0.00,WUHU216WMR968SP,2013-07-12 04:41:00,
2013-07-11 21:46:00,59.7,23.7,29.88,WNW,300,0.0,0.0,25,0.00,,,0.00,WUHU216WMR968SP,2013-07-12 04:46:00,
2013-07-11 21:51:00,59.7,22.7,29.88,WNW,300,0.0,0.0,24,0.00,,,0.00,WUHU216WMR968SP,2013-07-12 04:51:00,
2013-07-11 21:56:00,59.2,23.2,29.88,WNW,300,0.0,0.0,25,0.00,,,0.00,WUHU216WMR968SP,2013-07-12 04:56:00,
2013-07-11 22:01:00,58.6,22.7,29.88,WNW,300,0.0,0.0,25,0.00,,,0.00,WUHU216WMR968SP,2013-07-12 05:01:00,
2013-07-11 22:06:00,58.5,23.6,29.91,WNW,300,0.0,0.0,26,0.00,,,0.00,WUHU216WMR968SP,2013-07-12 05:06:00,
2013-07-11 22:11:00,57.2,23.3,29.91,WNW,300,0.0,0.0,27,0.00,,,0.00,WUHU216WMR968SP,2013-07-12 05:11:00,
2013-07-11 22:16:00,56.8,23.8,29.91,WNW,300,0.0,0.0,28,0.00,,,0.00,WUHU216WMR968SP,2013-07-12 05:16:00,
2013-07-11 22:21:00,56.7,24.6,29.91,WNW,300,0.0,0.0,29,0.00,,,0.00,WUHU216WMR968SP,2013-07-12 05:21:00,
2013-07-11 22:26:00,56.1,25.6,29.91,WNW,300,0.0,0.0,31,0.00,,,0.00,WUHU216WMR968SP,2013-07-12 05:26:00,
2013-07-11 22:31:00,55.8,26.9,29.91,WNW,300,0.0,0.0,33,0.00,,,0.00,WUHU216WMR968SP,2013-07-12 05:31:00,
2013-07-11 22:36:00,55.4,26.5,29.91,WNW,300,0.0,0.0,33,0.00,,,0.00,WUHU216WMR968SP,2013-07-12 05:36:00,
2013-07-11 22:41:00,55.4,26.5,29.91,WNW,300,0.0,0.0,33,0.00,,,0.00,WUHU216WMR968SP,2013-07-12 05:41:00,
2013-07-11 22:46:00,55.4,26.5,29.91,WNW,300,0.0,0.0,33,0.00,,,0.00,WUHU216WMR968SP,2013-07-12 05:46:00,
2013-07-11 22:51:00,55.4,25.8,29.91,WNW,300,0.0,0.0,32,0.00,,,0.00,WUHU216WMR968SP,2013-07-12 05:51:00,
2013-07-11 22:56:00,55.4,25.8,29.91,WNW,300,0.0,0.0,32,0.00,,,0.00,WUHU216WMR968SP,2013-07-12 05:56:00,
2013-07-11 23:01:00,55.6,26.0,29.91,WNW,300,0.0,0.0,32,0.00,,,0.00,WUHU216WMR968SP,2013-07-12 06:01:00,
2013-07-11 23:06:00,55.4,26.5,29.91,WNW,300,0.0,0.0,33,0.00,,,0.00,WUHU216WMR968SP,2013-07-12 06:06:00,
2013-07-11 23:11:00,55.2,26.4,29.91,WNW,300,0.0,0.0,33,0.00,,,0.00,WUHU216WMR968SP,2013-07-12 06:11:00,
2013-07-11 23:16:00,55.0,26.2,29.91,WNW,300,0.0,0.0,33,0.00,,,0.00,WUHU216WMR968SP,2013-07-12 06:16:00,
2013-07-11 23:21:00,54.9,26.1,29.91,WNW,300,0.0,0.0,33,0.00,,,0.00,WUHU216WMR968SP,2013-07-12 06:21:00,
2013-07-11 23:26:00,54.9,26.8,29.91,WNW,300,0.0,0.0,34,0.00,,,0.00,WUHU216WMR968SP,2013-07-12 06:26:00,
2013-07-11 23:31:00,54.7,26.6,29.91,WNW,300,0.0,0.0,34,0.00,,,0.00,WUHU216WMR968SP,2013-07-12 06:31:00,
2013-07-11 23:36:00,54.5,26.5,29.91,WNW,300,0.0,0.0,34,0.00,,,0.00,WUHU216WMR968SP,2013-07-12 06:36:00,
2013-07-11 23:41:00,54.3,26.3,29.91,WNW,300,0.0,0.0,34,0.00,,,0.00,WUHU216WMR968SP,2013-07-12 06:41:00,
2013-07-11 23:46:00,54.1,26.1,29.91,WNW,300,0.0,0.0,34,0.00,,,0.00,WUHU216WMR968SP,2013-07-12 06:46:00,
2013-07-11 23:51:00,54.0,26.7,29.91,WNW,300,0.0,0.0,35,0.00,,,0.00,WUHU216WMR968SP,2013-07-12 06:51:00,
2013-07-11 23:56:00,53.8,26.5,29.91,WNW,300,0.0,0.0,35,0.00,,,0.00,WUHU216WMR968SP,2013-07-12 06:56:00,